This demonstration page uses our WeatherBlox Daily Observations layout. Learn more.

Left ArrowRight Arrow

Hourly Observations for February 22, 2016

Temp ( °F °C ) Dew Point ( °F °C ) Humidity (%) Winds ( mph kmh ) Pressure ( in mb ) Visibility ( mi km ) Precip ( " mm )
12:14 am 00:14 Cloudy 39 4 36 2 87 87 N 8 13 30.15 1021 10 16 N/A
12:34 am 00:34 Partly Cloudy 36 2 34 1 93 93 N 7 11 30.18 1022 10 16 N/A
12:55 am 00:55 Clear 36 2 32 undefined 87 87 N 7 11 30.18 1022 10 16 N/A
1:14 am 01:14 Clear 34 1 32 undefined 93 93 N 8 13 30.18 1022 10 16 N/A
1:34 am 01:34 Clear 34 1 32 undefined 93 93 N 8 13 30.15 1021 10 16 N/A
1:55 am 01:55 Clear 32 undefined 32 undefined 100 100 N 7 11 30.18 1022 10 16 N/A
2:14 am 02:14 Clear 32 undefined 30 -1 93 93 N 8 13 30.18 1022 10 16 N/A
2:34 am 02:34 Clear 32 undefined 30 -1 93 93 NNW 8 13 30.18 1022 10 16 N/A
2:55 am 02:55 Clear 32 undefined 32 undefined 100 100 N 8 13 30.18 1022 10 16 N/A
3:14 am 03:14 Partly Cloudy 32 undefined 30 -1 93 93 N 7 11 30.18 1022 10 16 N/A
3:34 am 03:34 Mostly Cloudy 32 undefined 32 undefined 100 100 N 9 15 30.18 1022 10 16 N/A
3:55 am 03:55 Cloudy 32 undefined 32 undefined 100 100 N 10 17 30.18 1022 10 16 N/A
4:14 am 04:14 Cloudy 34 1 32 undefined 93 93 N 10 17 30.18 1022 10 16 N/A
4:35 am 04:35 Cloudy 32 undefined 30 -1 93 93 N 9 15 30.21 1023 10 16 N/A
4:54 am 04:54 Cloudy 34 1 30 -1 87 87 N 8 13 30.21 1023 10 16 N/A
5:14 am 05:14 Cloudy 34 1 32 undefined 93 93 NNE 6 9 30.21 1023 10 16 N/A
5:35 am 05:35 Cloudy 34 1 32 undefined 93 93 N 6 9 30.21 1023 10 16 N/A
5:54 am 05:54 Cloudy 34 1 32 undefined 93 93 N 6 9 30.21 1023 10 16 N/A
6:14 am 06:14 Cloudy 32 undefined 32 undefined 100 100 N 6 9 30.21 1023 10 16 N/A
6:35 am 06:35 Cloudy 32 undefined 30 -1 93 93 N 5 7 30.21 1023 10 16 N/A
6:54 am 06:54 Mostly Cloudy 30 -1 28 -2 93 93 N 5 7 30.21 1023 10 16 N/A
7:14 am 07:14 Mostly Cloudy 30 -1 28 -2 93 93 N 5 7 30.21 1023 10 16 N/A
7:35 am 07:35 Cloudy 30 -1 28 -2 93 93 N 5 7 30.21 1023 10 16 N/A
7:54 am 07:54 Cloudy 28 -2 28 -2 100 100 N 5 7 30.21 1023 10 16 N/A
8:14 am 08:14 Partly Cloudy 30 -1 28 -2 93 93 N 3 6 30.21 1023 10 16 N/A
8:35 am 08:35 Sunny 32 undefined 30 -1 93 93 N 8 13 30.21 1023 10 16 N/A
8:54 am 08:54 Sunny 32 undefined 30 -1 93 93 NNE 7 11 30.21 1023 10 16 N/A
9:14 am 09:14 Sunny 32 undefined 30 -1 93 93 NE 5 7 30.21 1023 10 16 N/A
9:35 am 09:35 Partly Cloudy 36 2 32 undefined 87 87 NE 5 7 30.21 1023 10 16 N/A
9:54 am 09:54 Partly Cloudy 36 2 34 1 93 93 NE 5 7 30.21 1023 10 16 N/A
10:14 am 10:14 Sunny 37 3 32 undefined 81 81 E 5 7 30.21 1023 10 16 N/A
10:35 am 10:35 Partly Cloudy 39 4 32 undefined 75 75 ENE 6 9 30.21 1023 10 16 N/A
10:54 am 10:54 Partly Cloudy 41 5 32 undefined 70 70 ENE 5 7 30.18 1022 10 16 N/A
11:14 am 11:14 Partly Cloudy 43 6 32 undefined 66 66 ENE 9 15 30.18 1022 10 16 N/A
11:35 am 11:35 Partly Cloudy 43 6 32 undefined 66 66 ENE 8 13 30.18 1022 10 16 N/A
11:54 am 11:54 Mostly Cloudy 45 7 30 -1 57 57 ENE 9 15 30.18 1022 10 16 N/A
12:14 pm 12:14 Mostly Cloudy 43 6 30 -1 61 61 ENE 8 13 30.15 1021 10 16 N/A
12:35 pm 12:35 Partly Cloudy 45 7 30 -1 57 57 NE 9 15 30.15 1021 10 16 N/A
12:54 pm 12:54 Partly Cloudy 45 7 30 -1 57 57 ENE 8 13 30.15 1021 10 16 N/A
1:14 pm 13:14 Partly Cloudy 46 8 30 -1 53 53 E 7 11 30.15 1021 10 16 N/A
1:35 pm 13:35 Partly Cloudy 46 8 30 -1 53 53 ENE 6 9 30.15 1021 10 16 N/A
1:54 pm 13:54 Partly Cloudy 46 8 30 -1 53 53 NE 6 9 30.15 1021 10 16 N/A
2:14 pm 14:14 Partly Cloudy 46 8 30 -1 53 53 ENE 5 7 30.12 1020 10 16 N/A
2:35 pm 14:35 Sunny 48 9 30 -1 50 50 NE 3 6 30.12 1020 10 16 N/A
2:54 pm 14:54 Partly Cloudy 48 9 30 -1 50 50 NNE 8 13 30.12 1020 10 16 N/A
3:14 pm 15:14 Partly Cloudy 48 9 30 -1 50 50 N 9 15 30.12 1020 10 16 N/A
3:35 pm 15:35 Partly Cloudy 48 9 30 -1 50 50 NNE 8 13 30.12 1020 10 16 N/A
3:54 pm 15:54 Partly Cloudy 48 9 30 -1 50 50 NE 7 11 30.09 1019 10 16 N/A
4:15 pm 16:15 Sunny 48 9 30 -1 50 50 NE 12 19 30.09 1019 10 16 N/A
4:34 pm 16:34 Partly Cloudy 48 9 30 -1 50 50 NNE 10 17 30.09 1019 10 16 N/A
4:54 pm 16:54 Partly Cloudy 46 8 30 -1 53 53 NNE 10 17 30.09 1019 10 16 N/A
5:15 pm 17:15 Sunny 46 8 30 -1 53 53 ENE 8 13 30.09 1019 10 16 N/A
5:34 pm 17:34 Partly Cloudy 45 7 30 -1 57 57 NE 12 19 30.09 1019 10 16 N/A
5:54 pm 17:54 Partly Cloudy 43 6 30 -1 61 61 NNE 10 17 30.09 1019 10 16 N/A
6:15 pm 18:15 Partly Cloudy 43 6 32 undefined 66 66 NE 9 15 30.09 1019 10 16 N/A
6:34 pm 18:34 Clear 41 5 30 -1 66 66 NE 8 13 30.09 1019 10 16 N/A
6:54 pm 18:54 Clear 39 4 30 -1 70 70 NE 8 13 30.09 1019 10 16 N/A
7:15 pm 19:15 Clear 37 3 30 -1 75 75 NE 6 9 30.12 1020 10 16 N/A
7:34 pm 19:34 Clear 36 2 30 -1 81 81 NE 8 13 30.12 1020 10 16 N/A
7:54 pm 19:54 Clear 36 2 28 -2 75 75 NE 8 13 30.12 1020 10 16 N/A
8:15 pm 20:15 Clear 36 2 28 -2 75 75 NE 8 13 30.12 1020 10 16 N/A
8:34 pm 20:34 Clear 34 1 28 -2 81 81 NE 8 13 30.15 1021 10 16 N/A
8:54 pm 20:54 Clear 34 1 28 -2 81 81 NE 8 13 30.15 1021 10 16 N/A
9:15 pm 21:15 Clear 34 1 28 -2 81 81 NE 7 11 30.15 1021 10 16 N/A
9:34 pm 21:34 Clear 32 undefined 28 -2 87 87 NE 7 11 30.15 1021 10 16 N/A
9:55 pm 21:55 Clear 32 undefined 28 -2 87 87 NE 8 13 30.15 1021 10 16 N/A
10:14 pm 22:14 Clear 32 undefined 28 -2 87 87 ENE 6 9 30.15 1021 10 16 N/A
10:34 pm 22:34 Clear 32 undefined 27 -3 80 80 NE 7 11 30.15 1021 10 16 N/A
10:55 pm 22:55 Clear 32 undefined 27 -3 80 80 NE 7 11 30.15 1021 10 16 N/A
11:14 pm 23:14 Clear 30 -1 27 -3 86 86 NE 7 11 30.15 1021 10 16 N/A
11:34 pm 23:34 Clear 32 undefined 28 -2 87 87 NE 8 13 30.15 1021 10 16 N/A
11:55 pm 23:55 Clear 32 undefined 28 -2 87 87 NE 8 13 30.12 1020 10 16 N/A

Powered by AerisWeather